EW5923 Weather Reports


Display with metric or nautical units.
time (UTC)temp
F
wind
direction
speed
MPH
gust
MPH
rain 1hr
in
rain 24hr
in
rain mn
in
humidity
%
barometer
mb
20260831061143 85 337 9.0 14.0 0.00 0.00 0.00 51 1012.9
20260831060122 87 327 9.0 19.0 0.00 0.00 0.00 51 1012.9
20260831055122 87 5 4.0 6.0 0.00 0.00 0.00 51 1012.1
20260831054144 87 336 4.0 8.0 0.00 0.00 0.00 51 1012.3
20260831053123 87 313 2.0 5.0 0.00 0.00 0.00 52 1012.3
20260831052122 87 330 3.0 5.0 0.00 0.00 0.00 52 1012.3
20260831051123 87 345 8.0 13.0 0.00 0.00 0.00 51 1012.2
20260831050122 88 325 5.0 10.0 0.00 0.00 0.00 53 1012.3
20260831045122 89 328 11.0 17.0 0.00 0.00 0.00 51 1012.3
20260831044143 90 339 6.0 12.0 0.00 0.00 0.00 47 1011.9
20260831043122 91 342 10.0 16.0 0.00 0.00 0.00 46 1011.6
20260831042122 92 313 8.0 16.0 0.00 0.00 0.00 43 1011.5
20260831041122 92 300 7.0 16.0 0.00 0.00 0.00 41 1011.7
20260831040123 97 314 14.0 22.0 0.00 0.00 0.00 36 1011.5
20260831035122 98 319 3.0 5.0 0.00 0.00 0.00 33 1010.8
20260831034122 98 323 2.0 4.0 0.00 0.00 0.00 33 1010.7
20260831033123 98 321 1.0 2.0 0.00 0.00 0.00 33 1010.6
20260831032143 98 321 2.0 2.0 0.00 0.00 0.00 33 1010.5
20260831031122 99 321 2.0 3.0 0.00 0.00 0.00 32 1010.5
20260831030122 99 321 2.0 4.0 0.00 0.00 0.00 32 1010.3
20260831025143 99 321 1.0 3.0 0.00 0.00 0.00 32 1010.2
20260831024143 99 332 1.0 3.0 0.00 0.00 0.00 32 1010.0
20260831023123 99 321 2.0 4.0 0.00 0.00 0.00 32 1009.8
20260831022122 99 324 3.0 4.0 0.00 0.00 0.00 32 1009.7
20260831021122 99 321 3.0 5.0 0.00 0.00 0.00 32 1009.5
20260831020122 99 341 2.0 5.0 0.00 0.00 0.00 31 1009.5
20260831015143 99 321 3.0 6.0 0.00 0.00 0.00 31 1009.3
20260831014123 100 328 5.0 9.0 0.00 0.00 0.00 31 1009.1
20260831013122 100 330 3.0 7.0 0.00 0.00 0.00 30 1008.9
20260831012122 100 315 6.0 10.0 0.00 0.00 0.00 30 1008.9
20260831011122 101 314 5.0 9.0 0.00 0.00 0.00 30 1009.0
20260831010122 100 260 2.0 4.0 0.00 0.00 0.00 30 1009.1
20260831005122 100 285 2.0 7.0 0.00 0.00 0.00 30 1009.0
20260831004122 101 253 3.0 7.0 0.00 0.00 0.00 30 1009.3
20260831003122 101 172 4.0 8.0 0.00 0.00 0.00 29 1009.3
20260831002123 101 207 4.0 8.0 0.00 0.00 0.00 29 1009.4
20260831001122 102 316 7.0 11.0 0.00 0.00 0.00 28 1009.4
20260831000122 101 301 5.0 11.0 0.00 0.00 0.00 29 1009.4
20260830235122 102 295 5.0 8.0 0.00 0.00 0.00 28 1009.4
20260830234123 102 319 3.0 8.0 0.00 0.00 0.00 28 1009.6
20260830233144 101 307 3.0 7.0 0.00 0.00 0.00 29 1009.6
20260830232122 101 260 6.0 12.0 0.00 0.00 0.00 29 1009.7
20260830231122 101 309 4.0 10.0 0.00 0.00 0.00 28 1009.8
20260830230122 102 194 4.0 9.0 0.00 0.00 0.00 28 1009.9
20260830225144 103 303 9.0 14.0 0.00 0.00 0.00 28 1010.1
20260830224144 102 313 6.0 13.0 0.00 0.00 0.00 30 1010.2
20260830223122 101 285 5.0 9.0 0.00 0.00 0.00 30 1010.5
20260830222143 101 273 3.0 8.0 0.00 0.00 0.00 30 1010.6
20260830221122 101 298 4.0 10.0 0.00 0.00 0.00 30 1010.8
20260830220122 101 287 6.0 12.0 0.00 0.00 0.00 30 1010.9
20260830215122 102 302 6.0 13.0 0.00 0.00 0.00 29 1011.2
20260830214122 102 169 3.0 5.0 0.00 0.00 0.00 30 1011.4
20260830213122 100 168 3.0 6.0 0.00 0.00 0.00 31 1011.6
20260830212122 100 149 3.0 10.0 0.00 0.00 0.00 32 1011.8
20260830211122 100 208 3.0 6.0 0.00 0.00 0.00 31 1012.0
20260830210143 100 255 6.0 10.0 0.00 0.00 0.00 31 1012.2
20260830205143 101 126 4.0 8.0 0.00 0.00 0.00 31 1012.4
20260830204123 100 150 7.0 13.0 0.00 0.00 0.00 31 1012.5
20260830203122 99 212 2.0 5.0 0.00 0.00 0.00 33 1012.8
20260830202122 99 261 7.0 12.0 0.00 0.00 0.00 33 1013.0
20260830201123 99 298 4.0 14.0 0.00 0.00 0.00 34 1013.0
20260830200123 98 260 3.0 9.0 0.00 0.00 0.00 34 1013.2
20260830195123 98 157 2.0 7.0 0.00 0.00 0.00 34 1013.4
20260830194144 98 290 4.0 10.0 0.00 0.00 0.00 35 1013.5
20260830193124 98 289 4.0 9.0 0.00 0.00 0.00 34 1013.6
20260830192123 98 283 7.0 13.0 0.00 0.00 0.00 33 1013.9
20260830191144 97 249 7.0 12.0 0.00 0.00 0.00 35 1014.0
20260830190123 98 135 4.0 7.0 0.00 0.00 0.00 35 1014.2
20260830185144 97 254 5.0 12.0 0.00 0.00 0.00 35 1014.3
20260830184123 96 267 7.0 12.0 0.00 0.00 0.00 35 1014.4
20260830183123 96 272 3.0 11.0 0.00 0.00 0.00 36 1014.7
20260830182123 97 214 8.0 11.0 0.00 0.00 0.00 35 1014.8
20260830181123 97 240 6.0 11.0 0.00 0.00 0.00 35 1014.9
20260830180123 96 188 5.0 9.0 0.00 0.00 0.00 36 1015.0
20260830175123 95 195 8.0 13.0 0.00 0.00 0.00 36 1015.2
20260830174123 95 132 7.0 14.0 0.00 0.00 0.00 37 1015.2
20260830173123 95 185 6.0 12.0 0.00 0.00 0.00 36 1015.3
20260830172124 95 204 5.0 11.0 0.00 0.00 0.00 36 1015.3
20260830171123 94 138 6.0 9.0 0.00 0.00 0.00 37 1015.3
20260830170123 93 245 6.0 11.0 0.00 0.00 0.00 38 1015.4
20260830165123 93 243 7.0 11.0 0.00 0.00 0.00 38 1015.2
20260830164123 93 238 6.0 13.0 0.00 0.00 0.00 38 1015.3
20260830163123 93 219 6.0 13.0 0.00 0.00 0.00 38 1015.3
20260830162123 93 247 7.0 13.0 0.00 0.00 0.00 38 1015.3
20260830161123 92 112 7.0 13.0 0.00 0.00 0.00 38 1015.3
20260830160124 92 124 9.0 13.0 0.00 0.00 0.00 38 1015.3
20260830155144 91 127 8.0 13.0 0.00 0.00 0.00 38 1015.3
20260830154123 92 127 8.0 14.0 0.00 0.00 0.00 39 1015.3
20260830153145 91 130 9.0 14.0 0.00 0.00 0.00 39 1015.4
20260830152144 91 118 8.0 12.0 0.00 0.00 0.00 40 1015.3
20260830151124 90 115 9.0 14.0 0.00 0.00 0.00 40 1015.4
20260830150124 90 139 9.0 15.0 0.00 0.00 0.00 40 1015.4
20260830145123 90 138 10.0 17.0 0.00 0.00 0.00 41 1015.5
20260830144144 89 118 9.0 13.0 0.00 0.00 0.00 41 1015.4
20260830143123 88 157 6.0 10.0 0.00 0.00 0.00 43 1015.5
20260830142123 87 165 5.0 10.0 0.00 0.00 0.00 45 1015.3
20260830141144 87 140 4.0 9.0 0.00 0.00 0.00 45 1015.1
20260830140123 86 138 2.0 4.0 0.00 0.00 0.00 47 1015.1
20260830135124 85 138 1.0 3.0 0.00 0.00 0.00 48 1015.1
20260830134144 84 138 2.0 3.0 0.00 0.00 0.00 50 1015.0
20260830133124 84 138 1.0 3.0 0.00 0.00 0.00 49 1014.8
20260830132123 84 138 2.0 4.0 0.00 0.00 0.00 50 1014.5
20260830131124 84 138 3.0 5.0 0.00 0.00 0.00 50 1014.4
20260830130123 84 129 4.0 8.0 0.00 0.00 0.00 51 1014.1
20260830125123 83 44 2.0 5.0 0.00 0.00 0.00 52 1014.0
20260830124124 83 53 3.0 7.0 0.00 0.00 0.00 53 1013.8
20260830123123 83 58 3.0 6.0 0.00 0.00 0.00 53 1013.5
20260830122123 82 66 4.0 5.0 0.00 0.00 0.00 55 1013.2
20260830121123 82 66 3.0 5.0 0.00 0.00 0.00 56 1013.2
20260830120144 82 74 4.0 7.0 0.00 0.00 0.00 55 1013.1
20260830115123 83 116 4.0 6.0 0.00 0.00 0.00 55 1013.2
20260830114124 83 119 3.0 7.0 0.00 0.00 0.00 55 1013.3
20260830113123 83 119 5.0 9.0 0.00 0.00 0.00 55 1013.4
20260830112123 83 146 6.0 10.0 0.00 0.00 0.00 54 1013.4
20260830111123 84 149 8.0 14.0 0.00 0.00 0.00 51 1013.3
20260830110124 85 103 6.0 12.0 0.00 0.00 0.00 50 1013.0
20260830105123 85 67 6.0 12.0 0.00 0.00 0.00 50 1013.0
20260830104122 86 25 8.0 13.0 0.00 0.00 0.00 47 1012.9
20260830103123 86 25 8.0 13.0 0.00 0.00 0.00 46 1012.9
20260830102123 87 16 8.0 13.0 0.00 0.00 0.00 44 1012.8
20260830101123 87 11 10.0 17.0 0.00 0.00 0.00 44 1012.6
20260830100123 87 15 9.0 16.0 0.00 0.00 0.00 43 1012.4
20260830095123 88 16 10.0 16.0 0.00 0.00 0.00 42 1012.3
20260830094144 88 16 9.0 14.0 0.00 0.00 0.00 43 1012.1
20260830093122 88 19 9.0 14.0 0.00 0.00 0.00 43 1011.9
20260830092123 88 21 9.0 16.0 0.00 0.00 0.00 42 1011.9
20260830091122 88 18 9.0 13.0 0.00 0.00 0.00 41 1012.0
20260830090144 89 20 9.0 15.0 0.00 0.00 0.00 41 1011.9
20260830085123 89 17 9.0 18.0 0.00 0.00 0.00 40 1012.0
20260830084124 89 9 9.0 14.0 0.00 0.00 0.00 40 1012.1
20260830083123 89 10 12.0 17.0 0.00 0.00 0.00 41 1011.8
20260830082123 89 16 11.0 15.0 0.00 0.00 0.00 41 1011.6
20260830081123 89 14 12.0 18.0 0.00 0.00 0.00 40 1011.5
20260830080124 89 18 12.0 20.0 0.00 0.00 0.00 40 1011.4
20260830075124 89 15 13.0 19.0 0.00 0.00 0.00 40 1011.3
20260830074124 90 28 13.0 20.0 0.00 0.00 0.00 39 1011.4
20260830073122 91 24 14.0 21.0 0.00 0.00 0.00 36 1011.5
20260830072123 91 29 12.0 16.0 0.00 0.00 0.00 36 1011.7
20260830071143 91 32 10.0 15.0 0.00 0.00 0.00 37 1012.2
20260830070124 91 40 8.0 14.0 0.00 0.00 0.00 37 1012.2
20260830065144 90 87 8.0 16.0 0.00 0.00 0.00 37 1012.2
20260830064123 89 99 10.0 17.0 0.00 0.00 0.00 41 1012.2
20260830063123 88 104 11.0 17.0 0.00 0.00 0.00 43 1012.3
20260830062123 88 113 11.0 18.0 0.00 0.00 0.00 44 1012.3